DW6610 Weather Reports


time (UTC)temp
C
wind
direction
speed
KPH
gust
KPH
rain 1hr
cm
rain 24hr
cm
rain mn
cm
humidity
%
barometer
mb
20260509225050 29 144 0.0 4.8 0.00 0.00 0.00 36 1010.9
20260509224609 29 197 1.6 4.8 0.00 0.00 0.00 35 1010.8
20260509224053 30 117 0.0 4.8 0.00 0.00 0.00 36 1010.8
20260509223551 29 0 1.6 4.8 0.00 0.00 0.00 37 1010.8
20260509223107 29 100 0.0 6.4 0.00 0.00 0.00 38 1010.8
20260509222552 29 107 3.2 8.0 0.00 0.00 0.00 39 1010.9
20260509222050 28 127 1.6 8.0 0.00 0.00 0.00 39 1010.9
20260509221612 29 170 1.6 8.0 0.00 0.00 0.00 36 1011.0
20260509221052 29 68 0.0 4.8 0.00 0.00 0.00 36 1011.0
20260509220553 28 0 1.6 6.4 0.00 0.00 0.00 34 1011.0
20260509220105 29 154 1.6 6.4 0.00 0.00 0.00 38 1010.9
20260509215550 29 143 1.6 6.4 0.00 0.00 0.00 36 1011.0
20260509215051 29 120 1.6 4.8 0.00 0.00 0.00 37 1010.9
20260509214553 29 73 1.6 4.8 0.00 0.00 0.00 39 1010.9
20260509214052 28 127 3.2 6.4 0.00 0.00 0.00 34 1011.0
20260509213550 28 91 1.6 8.0 0.00 0.00 0.00 38 1011.0
20260509213057 28 126 1.6 8.0 0.00 0.00 0.00 39 1011.0
20260509212549 28 181 1.6 6.4 0.00 0.00 0.00 38 1011.1
20260509212053 28 195 1.6 6.4 0.00 0.00 0.00 36 1011.0
20260509211553 29 163 1.6 6.4 0.00 0.00 0.00 37 1011.0
20260509211052 29 180 1.6 4.8 0.00 0.00 0.00 35 1011.2
20260509210550 29 90 1.6 8.0 0.00 0.00 0.00 38 1011.2
20260509210100 28 135 1.6 8.0 0.00 0.00 0.00 37 1011.1
20260509205552 28 120 3.2 8.0 0.00 0.00 0.00 40 1011.1
20260509205050 28 207 1.6 8.0 0.00 0.00 0.00 37 1011.1
20260509204600 29 153 1.6 8.0 0.00 0.00 0.00 44 1011.0
20260509204052 28 122 1.6 8.0 0.00 0.00 0.00 39 1011.1
20260509203551 28 163 3.2 8.0 0.00 0.00 0.00 41 1011.0
20260509203055 28 216 1.6 8.0 0.00 0.00 0.00 40 1011.1
20260509202552 28 117 1.6 8.0 0.00 0.00 0.00 39 1011.2
20260509202053 29 84 1.6 4.8 0.00 0.00 0.00 40 1011.1
20260509201551 28 129 1.6 11.3 0.00 0.00 0.00 37 1011.1
20260509201051 28 114 3.2 11.3 0.00 0.00 0.00 40 1011.2
20260509200551 28 82 3.2 11.3 0.00 0.00 0.00 45 1011.2
20260509200104 28 90 1.6 6.4 0.00 0.00 0.00 42 1011.2
20260509195550 28 139 3.2 8.0 0.00 0.00 0.00 37 1011.4
20260509195049 28 153 1.6 8.0 0.00 0.00 0.00 40 1011.3
20260509194555 28 101 3.2 9.7 0.00 0.00 0.00 40 1011.4
20260509194051 28 204 1.6 11.3 0.00 0.00 0.00 46 1011.3
20260509193554 28 70 4.8 11.3 0.00 0.00 0.00 47 1011.4
20260509193101 28 165 1.6 9.7 0.00 0.00 0.00 46 1011.4
20260509192550 28 207 1.6 9.7 0.00 0.00 0.00 44 1011.4
20260509192052 28 92 4.8 8.0 0.00 0.00 0.00 45 1011.5
20260509191613 28 199 1.6 6.4 0.00 0.00 0.00 42 1011.5
20260509191050 28 86 1.6 6.4 0.00 0.00 0.00 48 1011.5
20260509190550 28 77 1.6 4.8 0.00 0.00 0.00 43 1011.5
20260509190112 28 164 1.6 8.0 0.00 0.00 0.00 45 1011.5
20260509185550 28 103 4.8 8.0 0.00 0.00 0.00 41 1011.6
20260509185050 28 118 3.2 6.4 0.00 0.00 0.00 41 1011.5
20260509184555 28 0 0.0 4.8 0.00 0.00 0.00 52 1011.5
20260509184051 28 78 1.6 8.0 0.00 0.00 0.00 49 1011.7
20260509183551 28 95 3.2 8.0 0.00 0.00 0.00 51 1011.8
20260509183105 28 115 1.6 8.0 0.00 0.00 0.00 47 1011.8
20260509182551 28 71 1.6 6.4 0.00 0.00 0.00 52 1011.8
20260509182050 28 126 1.6 6.4 0.00 0.00 0.00 47 1011.8
20260509181553 28 82 1.6 6.4 0.00 0.00 0.00 51 1011.9
20260509181051 28 39 1.6 4.8 0.00 0.00 0.00 50 1012.0
20260509180550 28 96 1.6 4.8 0.00 0.00 0.00 52 1012.0
20260509180057 28 93 1.6 9.7 0.00 0.00 0.00 56 1012.1
20260509175550 28 101 3.2 9.7 0.00 0.00 0.00 57 1012.1
20260509175050 27 48 3.2 8.0 0.00 0.00 0.00 54 1012.0
20260509174554 27 83 1.6 6.4 0.00 0.00 0.00 49 1012.0
20260509174048 27 120 1.6 6.4 0.00 0.00 0.00 52 1012.1
20260509173551 27 78 0.0 6.4 0.00 0.00 0.00 52 1012.0
20260509173101 27 150 1.6 6.4 0.00 0.00 0.00 49 1012.0
20260509172554 27 161 1.6 4.8 0.00 0.00 0.00 56 1012.0
20260509172052 27 122 1.6 4.8 0.00 0.00 0.00 52 1012.0
20260509171606 27 120 1.6 8.0 0.00 0.00 0.00 56 1012.0
20260509171051 27 117 3.2 8.0 0.00 0.00 0.00 54 1012.0
20260509170551 27 117 3.2 8.0 0.00 0.00 0.00 57 1012.1
20260509170057 27 189 3.2 6.4 0.00 0.00 0.00 58 1012.1
20260509165552 27 63 1.6 6.4 0.00 0.00 0.00 54 1012.2
20260509165051 27 116 1.6 6.4 0.00 0.00 0.00 54 1012.2
20260509164554 27 0 1.6 6.4 0.00 0.00 0.00 59 1012.2
20260509164055 27 70 3.2 6.4 0.00 0.00 0.00 59 1012.1
20260509163553 26 102 1.6 6.4 0.00 0.00 0.00 59 1012.1
20260509163101 26 130 1.6 8.0 0.00 0.00 0.00 60 1012.2
20260509162553 26 101 1.6 8.0 0.00 0.00 0.00 60 1012.1
20260509162051 26 205 1.6 8.0 0.00 0.00 0.00 58 1012.0
20260509161555 26 72 1.6 8.0 0.00 0.00 0.00 59 1012.0
20260509161052 26 124 1.6 8.0 0.00 0.00 0.00 61 1012.0
20260509160553 26 153 3.2 8.0 0.00 0.00 0.00 60 1012.0
20260509160050 25 214 0.0 6.4 0.00 0.00 0.00 59 1011.9
20260509155552 25 154 1.6 6.4 0.00 0.00 0.00 62 1012.0
20260509155052 25 144 3.2 9.7 0.00 0.00 0.00 59 1011.9
20260509154558 25 173 1.6 9.7 0.00 0.00 0.00 59 1011.7
20260509154053 25 172 3.2 6.4 0.00 0.00 0.00 57 1011.7
20260509153551 26 117 1.6 6.4 0.00 0.00 0.00 62 1011.7
20260509153058 26 121 0.0 4.8 0.00 0.00 0.00 63 1011.6
20260509152551 25 79 1.6 6.4 0.00 0.00 0.00 63 1011.6
20260509152052 25 114 1.6 6.4 0.00 0.00 0.00 63 1011.6
20260509151601 25 186 1.6 6.4 0.00 0.00 0.00 64 1011.6
20260509151050 25 82 1.6 6.4 0.00 0.00 0.00 66 1011.7
20260509150552 25 98 1.6 6.4 0.00 0.00 0.00 64 1011.7
20260509150055 25 0 1.6 8.0 0.00 0.00 0.00 67 1011.7
20260509145552 24 143 1.6 8.0 0.00 0.00 0.00 67 1011.8
20260509145052 24 88 1.6 8.0 0.00 0.00 0.00 69 1011.8
20260509144556 23 160 3.2 8.0 0.00 0.00 0.00 70 1011.8
20260509144051 23 103 3.2 8.0 0.00 0.00 0.00 68 1011.8
20260509143553 23 165 1.6 4.8 0.00 0.00 0.00 71 1011.8
20260509143057 23 107 1.6 8.0 0.00 0.00 0.00 71 1011.9
20260509142551 23 147 0.0 8.0 0.00 0.00 0.00 73 1011.9
20260509142052 22 134 3.2 8.0 0.00 0.00 0.00 71 1011.9
20260509141553 22 108 3.2 8.0 0.00 0.00 0.00 71 1011.8
20260509141052 22 96 1.6 8.0 0.00 0.00 0.00 76 1011.7
20260509140552 22 88 3.2 8.0 0.00 0.00 0.00 72 1011.6
20260509140132 22 96 1.6 6.4 0.00 0.00 0.00 76 1011.6
20260509135550 22 118 1.6 6.4 0.00 0.00 0.00 74 1011.6
20260509135050 22 111 1.6 9.7 0.00 0.00 0.00 77 1011.6
20260509134606 21 138 0.0 9.7 0.00 0.00 0.00 79 1011.7
20260509134051 21 80 1.6 9.7 0.00 0.00 0.00 75 1011.7
20260509133551 21 153 1.6 6.4 0.00 0.00 0.00 77 1011.6
20260509133058 21 94 1.6 4.8 0.00 0.00 0.00 78 1011.7
20260509132552 21 131 1.6 6.4 0.00 0.00 0.00 80 1011.6
20260509132054 20 0 1.6 6.4 0.00 0.00 0.00 80 1011.6
20260509131616 20 0 1.6 4.8 0.00 0.00 0.00 80 1011.6
20260509131051 20 98 0.0 3.2 0.00 0.00 0.00 82 1011.5
20260509130550 20 0 0.0 3.2 0.00 0.00 0.00 85 1011.5
20260509125551 18 75 0.0 1.6 0.00 0.00 0.00 87 1011.5
20260509125055 18 73 0.0 3.2 0.00 0.00 0.00 89 1011.5
20260509124553 17 73 0.0 3.2 0.00 0.00 0.00 88 1011.4
20260509124050 17 73 1.6 3.2 0.00 0.00 0.00 90 1011.4
20260509123552 16 0 0.0 1.6 0.00 0.00 0.00 92 1011.4
20260509123102 15 84 0.0 1.6 0.00 0.00 0.00 94 1011.4
20260509122552 15 84 0.0 3.2 0.00 0.00 0.00 95 1011.3
20260509122051 14 0 0.0 4.8 0.00 0.00 0.00 95 1011.2
20260509121552 14 0 0.0 6.4 0.00 0.00 0.00 95 1011.2
20260509121052 14 72 0.0 6.4 0.00 0.00 0.00 95 1011.2
20260509120554 14 70 1.6 4.8 0.00 0.00 0.00 95 1011.2
20260509120058 13 0 0.0 4.8 0.00 0.00 0.00 95 1011.2
20260509115551 13 77 1.6 4.8 0.00 0.00 0.00 95 1011.2
20260509115051 13 77 0.0 8.0 0.00 0.00 0.00 95 1011.2
20260509114608 13 43 1.6 8.0 0.00 0.00 0.00 95 1011.1
20260509114051 13 71 1.6 9.7 0.00 0.00 0.00 95 1011.1
20260509113549 13 73 3.2 11.3 0.00 0.00 0.00 95 1011.0
20260509113055 13 307 1.6 11.3 0.00 0.00 0.00 96 1010.9
20260509112550 13 110 3.2 9.7 0.00 0.00 0.00 96 1010.9
20260509112050 13 20 0.0 8.0 0.00 0.00 0.00 96 1010.8
20260509111555 13 55 1.6 6.4 0.00 0.00 0.00 96 1010.8
20260509111050 13 86 1.6 4.8 0.00 0.00 0.00 96 1010.6
20260509110552 13 45 1.6 4.8 0.00 0.00 0.00 96 1010.6
20260509110104 13 47 0.0 3.2 0.00 0.00 0.00 96 1010.5
20260509105551 13 60 0.0 3.2 0.00 0.00 0.00 96 1010.3
20260509105053 13 63 0.0 3.2 0.00 0.00 0.00 96 1010.3
20260509104558 13 66 0.0 3.2 0.00 0.00 0.00 96 1010.4
20260509104051 13 69 0.0 3.2 0.00 0.00 0.00 96 1010.3
20260509103552 13 68 0.0 3.2 0.00 0.00 0.00 96 1010.3
20260509103054 13 54 1.6 4.8 0.00 0.00 0.00 96 1010.3
20260509102551 13 52 1.6 4.8 0.00 0.00 0.00 96 1010.3
20260509102052 13 40 0.0 3.2 0.00 0.00 0.00 96 1010.5
20260509101554 13 82 0.0 4.8 0.00 0.00 0.00 96 1010.4
20260509101055 13 0 0.0 4.8 0.00 0.00 0.00 97 1010.4
20260509100552 12 45 1.6 4.8 0.00 0.00 0.00 97 1010.5
20260509100054 12 84 1.6 4.8 0.00 0.00 0.00 97 1010.6
20260509095555 12 37 0.0 3.2 0.00 0.00 0.00 97 1010.6
20260509095052 12 91 0.0 3.2 0.00 0.00 0.00 97 1010.7
20260509094610 12 0 0.0 3.2 0.00 0.00 0.00 96 1010.9
20260509094051 12 72 0.0 1.6 0.00 0.00 0.00 96 1010.8
20260509093551 12 83 0.0 1.6 0.00 0.00 0.00 96 1010.9
20260509093053 12 0 0.0 0.0 0.00 0.00 0.00 96 1010.8
20260509092555 12 0 0.0 0.0 0.00 0.00 0.00 96 1010.9
20260509092051 12 0 0.0 0.0 0.00 0.00 0.00 95 1010.6
20260509091556 12 0 0.0 0.0 0.00 0.00 0.00 95 1010.6
20260509091054 12 0 0.0 0.0 0.00 0.00 0.00 95 1010.5
20260509090552 12 0 0.0 0.0 0.00 0.00 0.00 94 1010.4
20260509085552 12 0 0.0 0.0 0.00 0.00 0.00 94 1010.5
20260509085050 13 0 0.0 0.0 0.00 0.00 0.00 94 1010.5
20260509084559 13 0 0.0 0.0 0.00 0.00 0.00 94 1010.7
20260509084050 13 0 0.0 0.0 0.00 0.00 0.00 93 1010.6
20260509083550 13 0 0.0 0.0 0.00 0.00 0.00 93 1010.6
20260509083054 13 0 0.0 0.0 0.00 0.00 0.00 92 1010.6
20260509082550 13 0 0.0 1.6 0.00 0.00 0.00 92 1010.5
20260509082051 13 0 0.0 1.6 0.00 0.00 0.00 92 1010.5
20260509081555 13 0 0.0 1.6 0.00 0.00 0.00 91 1010.5
20260509081051 13 0 0.0 3.2 0.00 0.00 0.00 91 1010.3
20260509080552 13 0 0.0 4.8 0.00 0.00 0.00 91 1010.3
20260509080052 14 0 0.0 4.8 0.00 0.00 0.00 91 1010.3
20260509075550 13 70 1.6 4.8 0.00 0.00 0.00 91 1010.1
20260509075050 14 44 1.6 4.8 0.00 0.00 0.00 91 1010.3
20260509074552 14 49 0.0 6.4 0.00 0.00 0.00 91 1010.3
20260509074052 14 56 1.6 6.4 0.00 0.00 0.00 90 1010.3
20260509073552 14 50 0.0 4.8 0.00 0.00 0.00 90 1010.3
20260509073050 14 15 0.0 3.2 0.00 0.00 0.00 90 1010.2
20260509072548 14 49 0.0 3.2 0.00 0.00 0.00 90 1010.0
20260509072051 14 0 0.0 4.8 0.00 0.00 0.00 90 1009.9
20260509071616 14 75 0.0 4.8 0.00 0.00 0.00 90 1010.0
20260509071052 14 0 0.0 4.8 0.00 0.00 0.00 90 1010.3
20260509070552 14 0 0.0 1.6 0.00 0.00 0.00 90 1010.3
20260509070106 14 0 0.0 1.6 0.00 0.00 0.00 89 1010.4
20260509065551 14 0 0.0 1.6 0.00 0.00 0.00 89 1010.4
20260509065051 14 0 0.0 1.6 0.00 0.00 0.00 89 1010.6
20260509064556 14 0 0.0 1.6 0.00 0.00 0.00 88 1010.7
20260509064050 15 0 0.0 1.6 0.00 0.00 0.00 88 1010.7
20260509063551 15 0 0.0 4.8 0.00 0.00 0.00 88 1010.3
20260509063055 15 34 0.0 4.8 0.00 0.00 0.00 88 1010.5
20260509062551 15 41 1.6 4.8 0.00 0.00 0.00 87 1010.7
20260509062051 15 51 1.6 8.0 0.00 0.00 0.00 87 1010.9
20260509061555 15 325 1.6 8.0 0.00 0.00 0.00 87 1011.0
20260509061048 15 32 1.6 6.4 0.00 0.00 0.00 87 1010.6
20260509060549 15 17 1.6 6.4 0.00 0.00 0.00 87 1011.1
20260509055550 15 66 1.6 8.0 0.00 0.00 0.00 87 1010.9
20260509055053 15 27 3.2 8.0 0.00 0.00 0.00 86 1010.9
20260509054613 15 50 1.6 8.0 0.00 0.00 0.00 86 1011.1
20260509054050 15 93 1.6 11.3 0.00 0.00 0.00 86 1011.2
20260509053549 15 71 3.2 11.3 0.00 0.00 0.00 85 1011.1
20260509053144 15 30 3.2 6.4 0.00 0.00 0.00 85 1011.3
20260509052552 15 11 0.0 6.4 0.00 0.00 0.00 85 1011.7
20260509052052 15 321 3.2 6.4 0.00 0.00 0.00 85 1011.5
20260509051554 15 72 1.6 4.8 0.00 0.00 0.00 85 1011.8
20260509051049 15 89 1.6 6.4 0.00 0.00 0.00 85 1011.7
20260509050550 15 65 1.6 6.4 0.00 0.00 0.00 84 1011.7
20260509050059 15 38 1.6 8.0 0.00 0.00 0.00 84 1011.6
20260509045550 15 71 1.6 8.0 0.00 0.00 0.00 84 1011.8
20260509045050 15 77 1.6 6.4 0.00 0.00 0.00 84 1011.9
20260509044557 15 1 1.6 8.0 0.00 0.00 0.00 84 1011.9
20260509044050 15 72 3.2 8.0 0.00 0.00 0.00 84 1012.0
20260509043549 15 48 1.6 4.8 0.00 0.00 0.00 84 1012.0
20260509043057 15 44 0.0 4.8 0.00 0.00 0.00 83 1012.1
20260509042549 15 71 0.0 6.4 0.00 0.00 0.00 83 1012.1
20260509042050 15 29 0.0 8.0 0.00 0.00 0.00 82 1012.2
20260509041558 15 47 0.0 8.0 0.00 0.00 0.00 82 1012.1
20260509041050 16 76 1.6 8.0 0.00 0.00 0.00 82 1012.1
20260509040550 16 55 1.6 8.0 0.00 0.00 0.00 81 1012.0
20260509040109 16 43 1.6 4.8 0.00 0.00 0.00 81 1012.0
20260509035550 16 41 0.0 3.2 0.00 0.00 0.00 81 1011.8
20260509035054 16 86 0.0 3.2 0.00 0.00 0.00 80 1011.9
20260509034614 16 67 0.0 3.2 0.00 0.00 0.00 80 1012.0
20260509034050 16 0 0.0 4.8 0.00 0.00 0.00 79 1011.8
20260509033550 16 82 0.0 4.8 0.00 0.00 0.00 79 1011.6
20260509033052 16 0 1.6 4.8 0.00 0.00 0.00 78 1011.5
20260509032550 16 44 0.0 3.2 0.00 0.00 0.00 78 1011.5
20260509032050 16 68 0.0 4.8 0.00 0.00 0.00 77 1011.6
20260509031554 16 0 0.0 8.0 0.00 0.00 0.00 77 1011.6
20260509031050 17 53 1.6 8.0 0.00 0.00 0.00 76 1011.3
20260509030552 17 41 0.0 6.4 0.00 0.00 0.00 76 1011.5
20260509025550 17 72 1.6 4.8 0.00 0.00 0.00 75 1011.6
20260509025051 17 313 1.6 4.8 0.00 0.00 0.00 75 1011.7
20260509024554 17 65 0.0 3.2 0.00 0.00 0.00 74 1011.6
20260509024051 17 49 0.0 4.8 0.00 0.00 0.00 74 1011.7
20260509023554 17 53 1.6 4.8 0.00 0.00 0.00 73 1011.8
20260509023055 17 55 0.0 6.4 0.00 0.00 0.00 72 1011.8
20260509022551 17 70 1.6 6.4 0.00 0.00 0.00 72 1011.7
20260509022048 17 53 0.0 6.4 0.00 0.00 0.00 71 1011.8
20260509021553 17 53 1.6 9.7 0.00 0.00 0.00 71 1011.8
20260509021051 17 28 1.6 9.7 0.00 0.00 0.00 70 1011.5
20260509020551 17 55 1.6 4.8 0.00 0.00 0.00 70 1011.5
20260509020057 17 53 1.6 4.8 0.00 0.00 0.00 69 1011.3
20260509015552 18 46 1.6 4.8 0.00 0.00 0.00 69 1011.3
20260509015051 18 63 0.0 4.8 0.00 0.00 0.00 69 1011.2
20260509014553 18 60 1.6 4.8 0.00 0.00 0.00 68 1011.2
20260509014051 18 78 0.0 4.8 0.00 0.00 0.00 68 1011.1
20260509013551 18 58 0.0 4.8 0.00 0.00 0.00 67 1011.3
20260509013109 18 51 1.6 4.8 0.00 0.00 0.00 67 1011.2
20260509012548 18 63 1.6 4.8 0.00 0.00 0.00 66 1011.4
20260509012051 18 60 1.6 4.8 0.00 0.00 0.00 65 1011.3
20260509011603 19 82 0.0 4.8 0.00 0.00 0.00 64 1011.4
20260509011050 19 75 0.0 4.8 0.00 0.00 0.00 64 1011.4
20260509010552 19 51 1.6 4.8 0.00 0.00 0.00 63 1011.3
20260509010051 20 63 0.0 3.2 0.00 0.00 0.00 62 1011.3
20260509005553 20 74 0.0 3.2 0.00 0.00 0.00 61 1011.3
20260509005051 20 0 0.0 3.2 0.00 0.00 0.00 60 1011.2
20260509004602 20 0 0.0 3.2 0.00 0.00 0.00 59 1011.2
20260509004052 21 0 0.0 3.2 0.00 0.00 0.00 58 1011.2
20260509003555 21 51 0.0 3.2 0.00 0.00 0.00 57 1011.2
20260509003113 21 76 0.0 6.4 0.00 0.00 0.00 56 1011.3
20260509002551 21 79 0.0 11.3 0.00 0.00 0.00 55 1011.1
20260509002051 22 15 3.2 11.3 0.00 0.00 0.00 54 1011.1
20260509001602 22 27 1.6 8.0 0.00 0.00 0.00 53 1011.0
20260509001052 22 11 3.2 8.0 0.00 0.00 0.00 51 1011.1
20260509000551 23 93 1.6 14.5 0.00 0.00 0.00 51 1011.1
20260509000111 23 344 4.8 14.5 0.00 0.00 0.00 49 1011.1
20260508235552 23 100 3.2 8.0 0.00 0.00 0.00 50 1011.0
20260508235052 23 309 3.2 9.7 0.00 0.00 0.00 49 1011.1
20260508234554 24 60 3.2 9.7 0.00 0.00 0.00 48 1011.1
20260508234053 24 52 3.2 9.7 0.00 0.00 0.00 48 1011.1
20260508233549 24 79 4.8 8.0 0.00 0.00 0.00 48 1011.1
20260508233054 24 46 3.2 9.7 0.00 0.00 0.00 47 1011.1
20260508232550 24 35 4.8 9.7 0.00 0.00 0.00 46 1011.1
20260508232049 25 39 4.8 14.5 0.00 0.00 0.00 46 1011.2
20260508231559 25 53 4.8 14.5 0.00 0.00 0.00 46 1011.2
20260508231050 25 64 4.8 11.3 0.00 0.00 0.00 46 1011.1
20260508230549 25 73 4.8 11.3 0.00 0.00 0.00 46 1011.2
20260508230058 25 60 4.8 11.3 0.00 0.00 0.00 47 1011.3
20260508225549 25 67 3.2 12.9 0.00 0.00 0.00 47 1011.3